Dewpoint
-0 1 1 -0 -1 -1 0 0 1 -0 -2 -2 -1 -1 -2 -3 -5 -7 -6 3 8 9 8 10 10 11 10 8 6 1 -2 -4 -6 -6 -7 -7 -6 -4 -5 -6 -6 -8 -12 -15
-5 2 0 -1 -2 -1 -1 1 1 0 -2 -1 -1 0 -1 -3 -4 -5 -6 -5 6 9 9 9 10 10 10 9 5 2 -1 -3 -5 -6 -7 -6 -4 -3 -4 -4 -5 -7 -10 -13
-3 -4 -5 0 1 3 1 1 2 2 1 0 0 1 -2 -4 -5 -5 -6 -6 -2 4 7 9 10 10 10 8 5 2 -0 -3 -4 -5 -4 -3 -2 -3 -3 -3 -4 -6 -10 -12
-4 -6 -6 -5 -5 -2 -1 1 2 3 4 6 -1 1 -3 -4 -4 -5 -5 -6 -7 2 6 7 8 9 9 8 4 2 -1 -3 -4 -3 -3 -4 -4 -4 -3 -3 -4 -8 -11 -13
-6 -7 -7 -6 -6 -6 -4 -3 -2 -2 -1 -2 -1 0 -3 -5 -4 -4 -6 -6 -6 -6 -3 3 6 7 7 6 3 1 -1 -3 -3 -2 -2 -3 -3 -3 -3 -2 -4 -8 -9 -13
-9 -10 -10 -9 -9 -9 -8 -6 -5 -4 -2 1 -1 -1 -2 -4 -5 -6 -7 -7 -5 -6 -4 1 3 4 4 4 2 -0 -2 -3 -2 -2 -2 -3 -4 -3 -3 -3 -5 -8 -11 -12
0 -1 -4 -7 -4 -7 -7 -5 -1 -1 2 0 -3 -1 -3 -4 1 1 1 0 -0 -2 -3 -1 1 3 3 2 0 -1 -3 -3 -3 -3 -3 -2 -2 -2 -3 -5 -6 -10 -12 -12
2 2 -3 -3 -5 -4 -5 -4 0 1 -0 -1 -3 -0 -1 2 1 0 0 0 -0 -0 0 1 1 1 2 1 -1 -2 -3 -4 -3 -2 -2 -1 -2 -3 -5 -7 -9 -11 -11 -12
4 4 -0 -1 -3 -3 -1 -2 -4 -1 -2 -1 -4 -4 2 3 2 -0 -0 0 0 -0 -0 -0 0 1 1 -1 -2 -2 -3 -3 -3 -2 -3 -3 -4 -6 -8 -9 -11 -11 -11 -11
3 4 -1 -1 -2 -1 -0 1 5 2 3 2 -1 0 1 4 3 2 -0 0 0 -0 -1 -1 -0 0 -1 -2 -2 -3 -3 -4 -5 -5 -6 -6 -6 -7 -10 -10 -10 -11 -11 -10
1 4 2 -1 -2 1 2 3 5 4 6 5 3 4 4 4 3 2 3 1 -0 -0 -0 -0 -1 -1 -2 -2 -2 -3 -3 -3 -5 -5 -6 -6 -7 -8 -9 -9 -10 -11 -10 -9
-1 2 3 2 -1 2 3 4 2 5 5 5 6 7 3 3 1 1 1 3 1 -0 -0 -0 -1 -1 -1 -2 -2 -2 -1 -2 -3 -3 -5 -6 -8 -8 -9 -10 -10 -10 -9 -9
-2 3 3 -1 2 -3 4 3 2 3 3 4 4 4 3 2 1 1 1 2 2 2 -0 0 -0 -1 -1 -1 -0 1 0 -0 -2 -3 -3 -5 -7 -8 -9 -9 -9 -9 -9 -11
-2 1 -0 -0 -3 -3 1 3 2 2 1 2 3 0 3 3 1 -0 1 2 3 1 2 1 1 2 1 1 0 0 -0 -0 -0 -2 -4 -5 -7 -8 -8 -9 -8 -9 -10 -13
-1 -1 0 -1 -2 -3 -2 -1 1 2 -0 0 -2 -3 -5 -5 -1 -1 -2 0 3 3 2 2 2 2 2 1 1 0 -0 -0 -2 -4 -5 -6 -7 -8 -8 -8 -9 -10 -12 -17
1 -1 0 1 -1 -0 -0 -1 -2 -2 -3 -0 -2 -4 -7 -9 -8 -3 -2 -0 2 3 2 2 2 2 2 1 0 0 -1 -2 -3 -5 -5 -6 -7 -8 -8 -9 -10 -11 -16 -19
1 1 1 0 0 0 2 -1 -3 -3 -5 -5 -3 -6 -8 -5 -5 -6 -1 -0 1 3 2 2 1 2 2 1 1 -0 -3 -4 -4 -5 -5 -6 -7 -8 -9 -10 -11 -16 -20 -25
0 1 1 2 2 2 -3 -5 -5 -3 -3 -4 -7 -5 -3 -1 -1 -0 -1 -1 -3 -3 0 2 2 2 2 1 -0 -2 -3 -4 -5 -5 -6 -6 -5 -8 -11 -14 -17 -19 -23 -28
-2 -1 2 2 1 -2 -3 -4 -5 -6 -7 -7 -3 -2 -3 -3 -2 -2 -5 -3 -3 -3 -1 -1 1 2 1 -1 -2 -3 -4 -4 -5 -4 -3 -5 -7 -10 -14 -18 -19 -22 -28 -31
-1 -1 1 1 1 -1 -6 -7 -9 -10 -5 -2 -3 -3 -3 -1 -1 -2 -5 -2 -1 -1 -0 -1 0 0 -0 -1 -2 -4 -4 -4 -3 -4 -5 -6 -10 -15 -17 -19 -23 -28 -30 -33
1 1 1 0 -0 -2 -6 -7 -7 -4 -6 -4 -4 -4 -3 -2 -3 -4 -3 -1 -0 -0 -1 -1 -2 -2 -2 -2 -3 -4 -4 -3 -4 -5 -6 -8 -13 -16 -19 -22 -27 -30 -32 -33
-1 -0 -0 -0 1 -1 -7 -6 -5 -6 -7 -5 -5 -4 -4 -5 -3 -2 -2 -1 -0 -1 -1 -2 -2 -2 -3 -3 -4 -4 -3 -3 -4 -5 -7 -12 -14 -17 -20 -26 -29 -30 -31 -32
-2 -4 -2 -3 -3 -6 -6 -8 -7 -6 -5 -5 -4 -4 -4 -2 -2 -1 -1 -1 -0 -1 -2 -1 -2 -3 -3 -4 -3 -2 -3 -4 -5 -6 -11 -13 -15 -18 -23 -26 -29 -29 -28 -30
-8 -7 -4 -4 -6 -6 -6 -6 -12 -19 -15 -10 -7 -5 -4 -2 -3 -1 -0 -1 -1 -1 -2 -2 -2 -3 -3 -2 -2 -3 -4 -5 -6 -10 -12 -14 -16 -19 -22 -24 -26 -25 -26 -28
-6 -5 -5 -5 -8 -8 -8 -10 -17 -18 -7 -9 -12 -13 -9 -8 -4 -1 0 -0 -1 -1 -2 -1 -2 -2 -2 -3 -4 -4 -5 -6 -9 -11 -13 -14 -16 -19 -21 -22 -23 -23 -24 -23
-7 -5 -4 -5 -9 -9 -13 -16 -15 -14 -11 -10 -9 -10 -12 -8 -6 -2 0 -0 -1 -2 -2 -3 -3 -2 -3 -4 -4 -5 -5 -7 -10 -12 -14 -15 -16 -18 -20 -22 -23 -23 -22 -23
Wind_Speed
3 3 8 14 12 8 4 5 8 4 8 7 12 17 15 18 11 15 24 26 34 39 37 38 41 40 40 39 38 35 33 31 31 29 27 24 20 16 12 7 4 2 0 2
2 10 8 7 5 8 9 14 14 6 7 6 7 22 17 15 15 22 24 22 33 34 36 37 41 42 41 42 42 38 34 32 31 28 25 23 21 17 12 10 7 4 1 1
11 6 3 4 5 5 6 11 6 13 5 7 8 25 9 7 8 20 22 24 23 33 40 40 43 45 42 46 46 40 35 31 28 27 26 25 22 18 15 12 8 5 2 2
10 8 15 17 10 7 15 8 12 11 3 6 4 13 3 4 11 7 17 18 21 26 33 39 42 45 46 47 46 40 35 31 29 29 28 26 24 21 17 13 10 6 3 2
8 6 6 6 10 7 9 8 6 5 5 3 4 5 3 7 8 8 8 16 16 18 26 33 40 44 46 47 45 39 34 32 30 30 27 25 23 19 17 13 9 6 3 3
5 4 4 8 6 6 1 1 2 2 3 8 7 9 23 2 7 6 5 15 12 9 19 28 33 39 43 41 41 37 34 32 30 28 26 24 23 22 19 14 11 7 4 3
2 4 3 5 5 5 4 5 3 3 3 13 9 7 17 9 11 9 12 23 24 16 16 26 32 37 40 45 41 36 33 31 29 27 25 24 22 19 16 13 10 7 5 4
3 4 5 2 5 5 5 9 5 7 6 7 2 6 2 5 13 16 17 17 18 13 6 18 27 34 43 43 39 35 31 29 28 27 28 26 22 20 16 13 11 7 5 4
2 5 4 3 3 6 0 3 4 6 10 3 7 8 6 9 17 18 18 21 16 9 4 13 21 31 41 38 33 31 31 28 27 26 25 24 22 19 16 14 10 7 4 4
4 4 3 4 1 1 2 1 3 2 3 5 5 4 2 12 13 11 12 14 14 8 7 12 22 34 37 34 32 30 27 26 26 25 23 22 22 19 16 14 10 6 4 3
5 2 5 3 1 4 0 4 3 1 4 3 3 2 7 10 9 10 7 11 10 8 6 6 18 35 36 34 31 27 24 23 25 25 24 23 22 19 15 12 9 6 3 2
6 3 4 7 7 4 1 2 8 4 3 3 1 0 4 5 7 7 13 7 6 8 8 1 10 19 25 28 27 23 21 23 24 23 22 20 19 16 14 11 9 6 4 2
5 4 2 8 2 1 2 2 3 3 2 4 4 4 12 7 10 9 19 17 7 9 15 14 3 13 21 25 24 21 24 26 25 23 22 21 19 16 14 13 10 8 5 2
4 5 6 9 10 3 2 5 6 4 2 3 5 4 6 10 11 13 18 19 18 16 15 24 26 19 26 26 25 28 30 26 23 22 23 20 17 15 15 12 10 7 4 1
6 14 6 13 16 8 6 6 7 8 6 5 9 6 12 7 10 16 20 22 23 23 22 26 33 29 36 37 37 34 29 26 25 24 22 19 17 15 13 12 10 7 4 1
2 13 6 8 12 9 12 8 11 11 12 12 13 15 6 6 6 15 18 22 23 28 33 31 33 35 38 40 42 35 31 29 27 25 22 19 17 16 14 12 10 8 5 3
4 3 5 15 6 5 5 13 12 6 6 9 9 6 4 7 7 10 8 2 9 25 32 36 40 41 41 45 42 39 35 32 29 24 21 18 17 17 15 13 9 7 6 4
8 4 2 3 3 6 5 3 5 8 9 8 3 3 2 6 14 14 11 13 14 14 17 31 42 45 44 43 44 40 37 33 31 27 22 18 15 18 16 12 9 6 7 7
15 10 5 3 4 5 6 6 7 7 5 3 5 3 1 9 11 16 14 16 18 18 14 17 31 41 41 43 44 41 38 35 30 25 22 19 19 18 14 12 10 9 8 8
13 11 7 4 3 6 4 1 8 4 4 6 4 4 3 2 1 5 19 19 18 14 10 7 17 28 34 38 44 42 37 33 28 26 22 19 18 15 14 11 10 10 9 7
8 4 8 7 4 5 6 5 6 4 5 6 4 7 7 4 7 16 20 22 13 6 2 7 16 25 31 37 39 37 35 31 27 24 21 19 17 15 13 12 12 10 9 8
10 8 5 6 5 9 9 4 8 7 10 7 7 9 13 17 20 18 14 11 8 5 8 11 17 23 29 33 35 33 30 26 24 22 21 21 18 15 14 12 12 11 9 8
5 6 7 7 7 3 16 6 6 3 4 7 9 11 15 20 22 19 15 11 8 8 10 12 16 21 28 33 31 28 26 26 22 20 23 21 17 15 13 12 12 11 11 7
2 3 3 3 5 6 10 9 3 10 13 13 12 15 18 20 22 22 18 12 12 11 13 15 17 23 29 27 26 25 28 25 23 25 23 20 16 15 14 13 12 11 9 6
3 4 5 3 2 3 8 11 6 10 9 12 18 21 21 23 25 25 23 17 15 16 15 14 17 21 26 27 24 24 24 22 24 22 20 18 16 14 14 12 10 10 8 6
4 4 4 5 6 9 7 9 10 13 18 20 19 23 24 26 25 27 27 19 20 21 20 20 19 22 26 25 25 22 21 21 22 21 20 19 18 17 15 14 14 11 7 3
Wind_Direction
200 156 208 211 209 223 201 220 248 272 297 301 276 278 279 279 275 258 264 249 231 230 231 222 220 219 212 210 208 207 203 201 203 202 200 198 198 193 194 191 186 182 172 20
316 240 225 221 211 220 234 255 267 276 249 269 279 281 279 266 261 257 261 254 238 224 226 224 221 220 215 211 207 204 203 204 205 209 205 201 195 187 191 188 192 199 226 346
218 222 108 209 221 231 232 236 251 262 289 268 298 285 261 245 250 265 259 258 250 234 227 222 218 218 212 210 207 204 202 202 202 201 197 192 191 190 188 190 199 202 226 328
246 213 235 263 251 206 260 202 237 258 274 267 147 289 246 283 259 241 259 254 248 236 230 228 219 216 214 210 204 200 197 197 197 200 203 205 202 196 191 194 199 208 233 287
224 165 199 220 243 205 277 210 226 213 229 282 182 269 56 20 314 281 275 273 264 248 241 232 225 219 212 209 198 194 193 193 194 197 203 204 200 196 192 191 200 208 226 298
240 279 193 201 232 201 245 303 308 253 150 255 204 204 281 256 223 242 254 273 330 311 240 229 222 217 210 198 190 188 186 186 191 194 198 205 203 195 189 191 200 207 227 291
306 218 234 192 238 200 141 85 301 282 188 245 150 206 249 340 20 17 1 357 349 333 242 218 212 207 201 186 183 180 181 181 185 188 190 195 200 196 189 193 202 216 231 267
208 303 174 170 159 189 177 167 183 233 223 270 155 232 194 42 37 33 27 16 15 27 180 190 194 192 182 177 172 174 177 178 178 182 183 184 191 190 188 196 199 210 231 266
235 274 299 193 201 140 289 157 234 251 275 255 246 257 201 58 37 20 12 23 31 46 122 176 180 180 174 167 170 174 176 175 176 180 181 181 188 188 185 187 191 201 233 275
356 303 277 315 26 345 108 70 347 1 244 227 241 207 202 48 31 26 22 21 28 53 110 161 178 175 167 169 176 177 176 175 173 174 179 184 186 184 180 183 188 189 209 240
3 214 296 337 257 148 32 130 57 252 262 268 322 109 59 61 38 358 31 67 65 54 60 140 164 167 173 176 173 171 172 174 178 180 178 183 181 180 176 179 177 166 172 215
196 353 284 239 283 5 188 251 181 192 227 249 308 136 108 67 27 327 301 283 53 127 125 275 182 179 175 172 171 173 181 186 183 182 176 180 189 182 174 170 166 164 170 170
194 165 335 324 9 350 218 125 123 125 59 219 171 240 199 206 247 217 248 248 246 232 190 181 182 184 178 176 182 191 190 188 182 188 194 190 180 178 170 171 172 164 159 169
276 201 204 239 243 167 198 177 199 173 145 195 226 307 205 226 236 223 241 252 230 222 217 209 204 221 210 207 204 198 192 192 195 193 188 179 178 174 173 174 165 161 171 175
230 256 241 246 252 246 218 204 202 210 221 195 265 255 269 254 237 250 250 241 223 230 224 212 206 220 217 212 209 208 200 195 191 188 184 181 173 173 179 176 172 175 168 129
209 241 204 252 249 243 249 236 240 240 251 246 256 269 271 263 274 266 253 237 227 221 231 224 217 220 217 214 208 199 198 193 191 188 184 181 179 180 181 183 183 171 149 118
206 207 227 254 241 256 247 230 223 213 213 223 239 260 310 313 307 272 273 231 252 233 232 229 228 222 222 215 211 202 195 189 186 187 185 183 183 186 179 178 177 167 150 143
225 209 206 232 223 243 252 196 181 202 233 229 214 120 293 297 307 294 283 297 304 292 259 242 234 229 224 216 208 199 194 189 185 181 183 187 191 189 178 172 174 177 154 130
223 229 230 233 216 297 289 221 199 184 213 187 157 161 308 337 325 298 300 316 308 300 291 271 244 230 218 209 201 195 189 184 179 187 193 189 190 185 178 172 169 168 141 123
196 197 201 181 200 217 251 344 102 101 250 185 188 207 200 318 331 261 318 310 306 293 291 270 225 212 208 203 196 191 186 183 190 184 181 182 187 180 175 173 161 157 135 128
189 183 216 210 226 275 223 185 112 156 234 179 230 262 280 208 243 286 301 304 298 283 210 177 191 190 194 196 190 186 186 190 185 178 175 177 179 176 172 169 160 146 136 131
176 173 198 210 199 252 189 157 178 213 175 216 243 267 288 294 302 288 285 290 278 233 181 175 180 186 191 188 185 186 188 186 179 177 172 179 177 174 172 169 161 149 141 154
184 191 173 183 204 206 192 188 172 182 268 267 274 281 299 308 306 297 272 256 224 207 195 183 186 184 187 187 191 194 189 180 177 175 178 177 175 176 169 169 161 154 161 158
181 160 192 137 198 208 188 179 216 299 298 298 281 285 289 296 302 297 272 253 227 217 193 183 188 188 187 193 197 198 181 178 174 178 181 180 179 174 171 167 167 171 169 154
206 132 173 270 5 80 205 217 256 296 275 267 289 292 292 296 292 289 274 252 224 210 203 202 197 195 194 191 186 182 179 172 177 183 184 184 182 182 177 171 174 177 176 160
204 184 162 228 203 194 193 246 263 276 277 279 287 290 287 292 293 289 272 248 222 210 207 205 202 199 192 186 178 178 177 181 188 188 191 194 191 188 187 185 183 183 179 170
Height
1467 1472 1474 1467 1469 1469 1471 1474 1473 1467 1462 1463 1458 1450 1448 1444 1442 1441 1439 1439 1439 1439 1443 1447 1450 1454 1459 1465 1470 1475 1478 1482 1485 1487 1488 1490 1493 1496 1498 1500 1502 1502 1502 1502
1469 1467 1462 1462 1465 1468 1470 1471 1469 1465 1461 1460 1454 1439 1440 1437 1432 1431 1430 1431 1434 1435 1437 1441 1444 1448 1454 1458 1463 1469 1475 1478 1482 1486 1487 1489 1491 1493 1496 1497 1499 1500 1501 1500
1466 1458 1458 1462 1463 1467 1467 1469 1469 1467 1461 1456 1455 1424 1430 1425 1423 1422 1423 1424 1426 1427 1429 1433 1436 1440 1447 1451 1457 1463 1470 1475 1480 1483 1485 1486 1488 1491 1493 1496 1497 1498 1499 1500
1457 1453 1456 1458 1460 1464 1463 1459 1460 1463 1468 1471 1452 1439 1422 1423 1420 1418 1418 1420 1420 1422 1424 1428 1431 1435 1439 1445 1453 1460 1466 1470 1476 1479 1482 1483 1484 1487 1490 1492 1493 1495 1497 1497
1446 1447 1453 1456 1454 1456 1454 1453 1457 1458 1464 1462 1459 1466 1422 1418 1423 1420 1416 1416 1417 1417 1419 1421 1424 1430 1434 1440 1448 1456 1461 1466 1470 1474 1477 1480 1482 1486 1489 1491 1494 1494 1494 1495
1448 1443 1445 1448 1447 1448 1452 1454 1456 1457 1464 1466 1449 1459 1409 1426 1422 1415 1412 1413 1415 1414 1416 1419 1423 1426 1431 1440 1447 1452 1458 1462 1469 1473 1475 1477 1480 1482 1484 1488 1491 1492 1491 1492
1445 1443 1440 1440 1447 1447 1449 1463 1476 1472 1471 1446 1438 1450 1422 1422 1431 1431 1427 1421 1416 1413 1413 1412 1415 1421 1427 1435 1441 1449 1455 1459 1465 1469 1473 1475 1480 1482 1482 1485 1489 1491 1490 1490
1449 1448 1439 1440 1441 1445 1449 1455 1470 1457 1452 1443 1433 1440 1433 1437 1435 1434 1431 1426 1420 1417 1417 1418 1419 1420 1427 1435 1441 1446 1452 1458 1463 1466 1469 1471 1476 1478 1478 1483 1486 1488 1490 1489
1453 1449 1437 1437 1437 1438 1443 1451 1446 1451 1443 1454 1434 1428 1437 1432 1434 1437 1436 1431 1426 1424 1420 1421 1425 1429 1432 1438 1445 1447 1450 1455 1460 1466 1469 1471 1475 1475 1475 1480 1484 1486 1488 1488
1450 1452 1443 1438 1434 1436 1436 1442 1452 1454 1450 1443 1432 1430 1434 1441 1446 1446 1441 1439 1435 1432 1428 1427 1428 1430 1437 1441 1443 1447 1451 1453 1457 1461 1466 1471 1472 1473 1473 1476 1479 1480 1483 1485
1455 1456 1449 1442 1439 1440 1442 1445 1457 1461 1454 1450 1435 1436 1445 1449 1450 1449 1445 1439 1436 1436 1436 1436 1437 1435 1436 1440 1444 1449 1452 1454 1458 1460 1462 1466 1469 1470 1470 1474 1474 1476 1479 1483
1454 1462 1455 1449 1440 1438 1436 1439 1439 1456 1456 1453 1445 1439 1449 1452 1448 1446 1443 1438 1436 1434 1435 1440 1441 1440 1442 1444 1446 1449 1452 1455 1458 1462 1461 1463 1467 1467 1466 1470 1472 1473 1476 1480
1449 1458 1459 1448 1445 1439 1441 1443 1446 1452 1456 1450 1448 1444 1441 1444 1441 1438 1435 1433 1432 1436 1433 1434 1444 1445 1446 1448 1450 1451 1453 1455 1457 1460 1459 1463 1466 1468 1466 1468 1470 1471 1474 1476
1448 1452 1451 1451 1444 1442 1444 1445 1449 1448 1467 1450 1444 1436 1436 1434 1436 1433 1428 1428 1430 1428 1430 1432 1435 1441 1443 1446 1447 1449 1452 1454 1457 1459 1461 1463 1466 1467 1467 1467 1469 1472 1474 1473
1447 1448 1447 1441 1438 1440 1440 1439 1441 1446 1442 1444 1431 1434 1425 1427 1427 1423 1418 1423 1426 1426 1425 1427 1428 1433 1435 1434 1436 1443 1450 1452 1455 1456 1461 1463 1464 1466 1468 1469 1468 1469 1470 1471
1442 1439 1442 1439 1436 1438 1437 1436 1434 1434 1432 1432 1429 1428 1424 1421 1422 1418 1414 1419 1419 1415 1418 1420 1421 1426 1429 1436 1438 1440 1445 1448 1452 1456 1459 1461 1461 1464 1467 1468 1468 1467 1467 1469
1443 1444 1440 1433 1432 1431 1439 1428 1427 1429 1425 1424 1429 1423 1422 1419 1417 1415 1415 1413 1412 1412 1413 1413 1413 1415 1422 1427 1432 1437 1440 1442 1447 1453 1457 1459 1463 1465 1463 1466 1468 1466 1464 1467
1434 1436 1434 1431 1434 1429 1417 1415 1415 1419 1417 1417 1417 1420 1420 1419 1416 1413 1412 1409 1407 1409 1408 1407 1406 1409 1415 1421 1427 1435 1438 1436 1442 1446 1453 1458 1461 1465 1464 1461 1465 1470 1466 1464
1426 1428 1430 1429 1429 1420 1414 1413 1414 1414 1414 1413 1416 1417 1416 1415 1413 1409 1409 1407 1404 1401 1400 1398 1398 1401 1407 1411 1422 1430 1433 1436 1439 1443 1448 1454 1460 1459 1461 1463 1464 1468 1465 1463
1417 1419 1426 1426 1430 1436 1413 1407 1406 1407 1419 1412 1413 1414 1414 1415 1419 1412 1405 1404 1402 1399 1395 1394 1396 1400 1406 1411 1418 1425 1431 1434 1435 1440 1445 1451 1457 1457 1460 1463 1463 1466 1461 1464
1410 1412 1412 1418 1423 1416 1406 1405 1406 1422 1420 1407 1409 1409 1409 1412 1409 1405 1402 1399 1398 1398 1395 1396 1400 1404 1405 1410 1418 1424 1430 1433 1435 1439 1443 1450 1455 1456 1457 1461 1463 1461 1462 1464
1399 1410 1417 1413 1420 1422 1399 1404 1410 1406 1403 1403 1403 1405 1406 1404 1401 1400 1399 1396 1396 1398 1398 1396 1399 1403 1407 1413 1418 1424 1429 1432 1434 1439 1443 1449 1452 1454 1457 1458 1460 1459 1461 1468
1396 1392 1400 1405 1401 1393 1393 1395 1398 1400 1402 1401 1400 1402 1403 1401 1399 1397 1395 1395 1396 1397 1400 1399 1400 1404 1409 1413 1419 1423 1426 1429 1434 1439 1445 1447 1450 1454 1455 1457 1457 1458 1464 1462
1388 1390 1392 1394 1389 1390 1391 1394 1396 1397 1396 1397 1398 1397 1398 1398 1397 1395 1394 1392 1394 1396 1397 1398 1400 1402 1406 1412 1417 1420 1425 1430 1434 1438 1443 1445 1448 1451 1454 1456 1457 1461 1461 1459
1389 1388 1390 1389 1388 1390 1391 1393 1393 1393 1392 1393 1394 1394 1393 1393 1393 1392 1390 1390 1391 1393 1395 1396 1398 1400 1405 1410 1415 1420 1424 1428 1432 1437 1440 1444 1446 1450 1453 1456 1459 1459 1458 1459
1386 1384 1388 1390 1383 1383 1385 1387 1387 1387 1387 1387 1388 1385 1387 1387 1387 1386 1385 1386 1387 1389 1392 1395 1396 1399 1403 1409 1413 1418 1422 1428 1430 1434 1438 1443 1446 1449 1452 1454 1455 1456 1456 1456